Back to catalog

SL-8 R/B

AlivePO
NORAD 14085·ROCKET BODY·🇷🇺 Russia

Launched May 24, 1983 from Plesetsk Cosmodrome

Loading…

Next Passes (next 24 hours)

TLE

FreshSource: Space-Track

Epoch: Sep 14, 2026, 13:17 UTC

1 14085U 83048B   26257.55379720  .00000100  00000-0  85732-4 0  9991
2 14085  82.9398 103.1846 0034039  25.6189 334.6645 13.76611210174845

Track SL-8 R/B in real time with AllMySat

Download on the App Store